| time (UTC) | temp C | wind direction | speed KPH | gust KPH | rain 1hr cm | rain 24hr cm | rain mn cm | humidity % | barometer mb |
| 20260902232844 | 26 | 152 | 0.0 | 0.0 | 0.00 | 0.23 | 0.23 | 94 | 1012.8 |
| 20260902232339 | 26 | 202 | 0.0 | 0.0 | 0.00 | 0.23 | 0.23 | 94 | 1012.7 |
| 20260902231838 | 26 | 201 | 0.0 | 0.0 | 0.00 | 0.23 | 0.23 | 94 | 1012.8 |
| 20260902231333 | 26 | 200 | 0.0 | 0.0 | 0.00 | 0.23 | 0.23 | 93 | 1012.7 |
| 20260902230828 | 26 | 196 | 0.0 | 0.0 | 0.00 | 0.23 | 0.23 | 91 | 1012.7 |
| 20260902230328 | 26 | 187 | 0.0 | 0.0 | 0.00 | 0.23 | 0.23 | 89 | 1012.8 |
| 20260902225822 | 26 | 216 | 9.7 | 14.5 | 0.00 | 0.23 | 0.23 | 87 | 1012.8 |
| 20260902225317 | 26 | 181 | 4.8 | 4.8 | 0.48 | 0.23 | 0.23 | 87 | 1013.1 |
| 20260902224816 | 27 | 203 | 3.2 | 3.2 | 1.37 | 0.23 | 0.23 | 84 | 1012.8 |
| 20260902224311 | 29 | 171 | 6.4 | 8.0 | 0.89 | 0.15 | 0.15 | 76 | 1012.7 |
| 20260902223808 | 33 | 36 | 11.3 | 16.1 | 0.00 | 0.00 | 0.00 | 58 | 1012.7 |
| 20260902223307 | 37 | 90 | 8.0 | 12.9 | 0.00 | 0.00 | 0.00 | 46 | 1012.4 |
| 20260902222801 | 37 | 69 | 0.0 | 1.6 | 0.00 | 0.00 | 0.00 | 43 | 1012.3 |
| 20260902222300 | 37 | 164 | 4.8 | 4.8 | 0.00 | 0.00 | 0.00 | 42 | 1012.2 |
| 20260902221755 | 37 | 78 | 1.6 | 1.6 | 0.00 | 0.00 | 0.00 | 42 | 1012.2 |
| 20260902221254 | 37 | 155 | 1.6 | 1.6 | 0.00 | 0.00 | 0.00 | 43 | 1012.6 |
| 20260902220750 | 36 | 224 | 1.6 | 1.6 | 0.00 | 0.00 | 0.00 | 44 | 1012.4 |
| 20260902220249 | 36 | 134 | 1.6 | 1.6 | 0.00 | 0.00 | 0.00 | 45 | 1012.6 |
| 20260902215745 | 37 | 65 | 1.6 | 3.2 | 0.00 | 0.00 | 0.00 | 43 | 1012.5 |
| 20260902215240 | 37 | 245 | 0.0 | 1.6 | 0.00 | 0.00 | 0.00 | 43 | 1012.6 |
| 20260902214736 | 38 | 125 | 1.6 | 1.6 | 0.00 | 0.00 | 0.00 | 42 | 1012.5 |
| 20260902214235 | 38 | 197 | 1.6 | 1.6 | 0.00 | 0.00 | 0.00 | 41 | 1012.5 |
| 20260902213731 | 37 | 204 | 0.0 | 0.0 | 0.00 | 0.00 | 0.00 | 42 | 1012.5 |
| 20260902213230 | 37 | 206 | 0.0 | 1.6 | 0.00 | 0.00 | 0.00 | 42 | 1012.7 |
| 20260902212730 | 37 | 59 | 4.8 | 8.0 | 0.00 | 0.00 | 0.00 | 42 | 1012.8 |
| 20260902212226 | 38 | 34 | 8.0 | 14.5 | 0.00 | 0.00 | 0.00 | 41 | 1012.7 |
| 20260902211722 | 37 | 119 | 3.2 | 3.2 | 0.00 | 0.00 | 0.00 | 42 | 1012.9 |
| 20260902211218 | 38 | 62 | 1.6 | 1.6 | 0.00 | 0.00 | 0.00 | 42 | 1012.9 |
| 20260902210712 | 37 | 133 | 3.2 | 3.2 | 0.00 | 0.00 | 0.00 | 42 | 1012.9 |
| 20260902210207 | 38 | 228 | 3.2 | 4.8 | 0.00 | 0.00 | 0.00 | 42 | 1012.9 |
| 20260902205705 | 37 | 309 | 3.2 | 3.2 | 0.00 | 0.00 | 0.00 | 42 | 1012.7 |
| 20260902205201 | 37 | 7 | 8.0 | 11.3 | 0.00 | 0.00 | 0.00 | 42 | 1013.2 |
| 20260902204656 | 37 | 114 | 1.6 | 3.2 | 0.00 | 0.00 | 0.00 | 43 | 1013.2 |
| 20260902204150 | 37 | 339 | 4.8 | 4.8 | 0.00 | 0.00 | 0.00 | 43 | 1013.4 |
| 20260902203645 | 37 | 136 | 1.6 | 3.2 | 0.00 | 0.00 | 0.00 | 43 | 1013.5 |
| 20260902203140 | 37 | 209 | 4.8 | 14.5 | 0.00 | 0.00 | 0.00 | 43 | 1013.4 |
| 20260902202636 | 37 | 290 | 8.0 | 9.7 | 0.00 | 0.00 | 0.00 | 43 | 1013.4 |
| 20260902202132 | 37 | 208 | 3.2 | 4.8 | 0.00 | 0.00 | 0.00 | 42 | 1013.6 |
| 20260902201628 | 37 | 114 | 8.0 | 12.9 | 0.00 | 0.00 | 0.00 | 43 | 1013.8 |
| 20260902201127 | 37 | 175 | 4.8 | 4.8 | 0.00 | 0.00 | 0.00 | 43 | 1013.6 |
| 20260902200622 | 37 | 109 | 6.4 | 12.9 | 0.00 | 0.00 | 0.00 | 43 | 1014.0 |
| 20260902200118 | 37 | 222 | 1.6 | 3.2 | 0.00 | 0.00 | 0.00 | 43 | 1013.9 |
| 20260902195613 | 37 | 317 | 1.6 | 8.0 | 0.00 | 0.00 | 0.00 | 45 | 1014.0 |
| 20260902195113 | 36 | 233 | 3.2 | 4.8 | 0.00 | 0.00 | 0.00 | 45 | 1014.1 |
| 20260902194612 | 37 | 5 | 8.0 | 12.9 | 0.00 | 0.00 | 0.00 | 44 | 1014.4 |
| 20260902194107 | 37 | 318 | 4.8 | 4.8 | 0.00 | 0.00 | 0.00 | 44 | 1014.3 |
| 20260902193603 | 37 | 0 | 8.0 | 9.7 | 0.00 | 0.00 | 0.00 | 43 | 1014.4 |
| 20260902193103 | 37 | 218 | 1.6 | 3.2 | 0.00 | 0.00 | 0.00 | 44 | 1014.7 |
| 20260902192601 | 37 | 304 | 11.3 | 14.5 | 0.00 | 0.00 | 0.00 | 45 | 1014.7 |
| 20260902192100 | 37 | 67 | 1.6 | 1.6 | 0.00 | 0.00 | 0.00 | 45 | 1014.7 |
| 20260902191555 | 37 | 222 | 3.2 | 4.8 | 0.00 | 0.00 | 0.00 | 44 | 1014.8 |
| 20260902191050 | 37 | 72 | 1.6 | 3.2 | 0.00 | 0.00 | 0.00 | 44 | 1015.0 |
| 20260902190545 | 36 | 204 | 1.6 | 1.6 | 0.00 | 0.00 | 0.00 | 45 | 1014.9 |
| 20260902190041 | 36 | 120 | 1.6 | 1.6 | 0.00 | 0.00 | 0.00 | 45 | 1015.1 |
| 20260902185537 | 36 | 284 | 4.8 | 4.8 | 0.00 | 0.00 | 0.00 | 46 | 1015.2 |
| 20260902185032 | 36 | 64 | 1.6 | 4.8 | 0.00 | 0.00 | 0.00 | 46 | 1015.2 |
| 20260902184527 | 36 | 182 | 0.0 | 0.0 | 0.00 | 0.00 | 0.00 | 46 | 1015.3 |
| 20260902184022 | 37 | 161 | 0.0 | 1.6 | 0.00 | 0.00 | 0.00 | 44 | 1015.3 |
| 20260902183519 | 36 | 47 | 1.6 | 3.2 | 0.00 | 0.00 | 0.00 | 46 | 1015.4 |
| 20260902183015 | 36 | 51 | 1.6 | 1.6 | 0.00 | 0.00 | 0.00 | 46 | 1015.5 |
| 20260902182511 | 35 | 172 | 3.2 | 4.8 | 0.00 | 0.00 | 0.00 | 49 | 1015.5 |
| 20260902182006 | 36 | 51 | 3.2 | 4.8 | 0.00 | 0.00 | 0.00 | 49 | 1015.8 |
| 20260902181502 | 35 | 70 | 1.6 | 1.6 | 0.00 | 0.00 | 0.00 | 50 | 1015.7 |
| 20260902180956 | 35 | 112 | 0.0 | 0.0 | 0.00 | 0.00 | 0.00 | 50 | 1016.0 |
| 20260902180457 | 35 | 127 | 1.6 | 3.2 | 0.00 | 0.00 | 0.00 | 50 | 1016.2 |
| 20260902175952 | 35 | 74 | 0.0 | 3.2 | 0.00 | 0.00 | 0.00 | 51 | 1016.4 |
| 20260902175447 | 35 | 154 | 1.6 | 3.2 | 0.00 | 0.00 | 0.00 | 51 | 1016.5 |
| 20260902174943 | 35 | 214 | 1.6 | 3.2 | 0.00 | 0.00 | 0.00 | 52 | 1016.6 |
| 20260902174439 | 34 | 161 | 1.6 | 1.6 | 0.00 | 0.00 | 0.00 | 53 | 1016.6 |
| 20260902173935 | 35 | 220 | 0.0 | 1.6 | 0.00 | 0.00 | 0.00 | 53 | 1016.5 |
| 20260902173434 | 35 | 51 | 3.2 | 4.8 | 0.00 | 0.00 | 0.00 | 53 | 1016.7 |
| 20260902172929 | 34 | 79 | 0.0 | 1.6 | 0.00 | 0.00 | 0.00 | 55 | 1016.6 |
| 20260902172428 | 35 | 124 | 1.6 | 1.6 | 0.00 | 0.00 | 0.00 | 53 | 1016.9 |
| 20260902171924 | 33 | 218 | 0.0 | 1.6 | 0.00 | 0.00 | 0.00 | 56 | 1017.1 |
| 20260902171419 | 33 | 197 | 0.0 | 0.0 | 0.00 | 0.00 | 0.00 | 55 | 1017.0 |
| 20260902170915 | 33 | 200 | 0.0 | 1.6 | 0.00 | 0.00 | 0.00 | 57 | 1016.9 |
| 20260902170410 | 33 | 249 | 1.6 | 1.6 | 0.00 | 0.00 | 0.00 | 58 | 1017.2 |
| 20260902165906 | 33 | 199 | 0.0 | 0.0 | 0.00 | 0.00 | 0.00 | 58 | 1017.4 |
| 20260902165405 | 33 | 78 | 3.2 | 4.8 | 0.00 | 0.00 | 0.00 | 58 | 1017.3 |
| 20260902164900 | 33 | 160 | 3.2 | 3.2 | 0.00 | 0.00 | 0.00 | 57 | 1017.4 |
| 20260902164355 | 33 | 142 | 0.0 | 0.0 | 0.00 | 0.00 | 0.00 | 59 | 1017.3 |
| 20260902163854 | 33 | 173 | 1.6 | 1.6 | 0.00 | 0.00 | 0.00 | 59 | 1017.8 |
| 20260902163349 | 33 | 169 | 4.8 | 8.0 | 0.00 | 0.00 | 0.00 | 59 | 1017.6 |
| 20260902162847 | 33 | 96 | 1.6 | 3.2 | 0.00 | 0.00 | 0.00 | 59 | 1017.5 |
| 20260902162342 | 32 | 146 | 0.0 | 1.6 | 0.00 | 0.00 | 0.00 | 62 | 1017.5 |
| 20260902161837 | 32 | 90 | 1.6 | 1.6 | 0.00 | 0.00 | 0.00 | 61 | 1017.5 |
| 20260902161332 | 32 | 151 | 0.0 | 1.6 | 0.00 | 0.00 | 0.00 | 62 | 1017.7 |
| 20260902160828 | 31 | 205 | 0.0 | 1.6 | 0.00 | 0.00 | 0.00 | 65 | 1017.6 |
| 20260902160323 | 32 | 213 | 0.0 | 0.0 | 0.00 | 0.00 | 0.00 | 64 | 1017.6 |
| 20260902155821 | 32 | 159 | 3.2 | 3.2 | 0.00 | 0.00 | 0.00 | 63 | 1017.5 |
| 20260902155320 | 32 | 217 | 1.6 | 3.2 | 0.00 | 0.00 | 0.00 | 62 | 1017.7 |
| 20260902154816 | 31 | 120 | 0.0 | 0.0 | 0.00 | 0.00 | 0.00 | 64 | 1017.8 |
| 20260902154311 | 32 | 138 | 1.6 | 3.2 | 0.00 | 0.00 | 0.00 | 64 | 1017.8 |
| 20260902153810 | 31 | 162 | 0.0 | 1.6 | 0.00 | 0.00 | 0.00 | 65 | 1017.7 |
| 20260902153304 | 31 | 160 | 0.0 | 0.0 | 0.00 | 0.00 | 0.00 | 66 | 1017.7 |
| 20260902152800 | 31 | 199 | 1.6 | 1.6 | 0.00 | 0.00 | 0.00 | 64 | 1017.6 |
| 20260902152256 | 31 | 169 | 1.6 | 3.2 | 0.00 | 0.00 | 0.00 | 65 | 1017.4 |
| 20260902151750 | 31 | 128 | 0.0 | 0.0 | 0.00 | 0.00 | 0.00 | 67 | 1017.4 |
| 20260902151245 | 31 | 165 | 0.0 | 0.0 | 0.00 | 0.00 | 0.00 | 67 | 1017.5 |
| 20260902150740 | 31 | 159 | 1.6 | 3.2 | 0.00 | 0.00 | 0.00 | 67 | 1017.6 |
| 20260902150237 | 31 | 182 | 1.6 | 1.6 | 0.00 | 0.00 | 0.00 | 67 | 1017.4 |
| 20260902145735 | 30 | 97 | 0.0 | 1.6 | 0.00 | 0.00 | 0.00 | 69 | 1017.3 |
| 20260902145231 | 30 | 157 | 3.2 | 3.2 | 0.00 | 0.00 | 0.00 | 70 | 1017.4 |
| 20260902144726 | 30 | 203 | 0.0 | 0.0 | 0.00 | 0.00 | 0.00 | 70 | 1017.5 |
| 20260902144222 | 30 | 122 | 1.6 | 1.6 | 0.00 | 0.00 | 0.00 | 71 | 1017.3 |
| 20260902143717 | 29 | 173 | 1.6 | 1.6 | 0.00 | 0.00 | 0.00 | 72 | 1017.4 |
| 20260902143212 | 29 | 192 | 0.0 | 1.6 | 0.00 | 0.00 | 0.00 | 72 | 1017.3 |
| 20260902142708 | 30 | 196 | 0.0 | 0.0 | 0.00 | 0.00 | 0.00 | 73 | 1017.6 |
| 20260902142204 | 30 | 162 | 0.0 | 1.6 | 0.00 | 0.00 | 0.00 | 72 | 1017.4 |
| 20260902141704 | 29 | 198 | 1.6 | 1.6 | 0.00 | 0.00 | 0.00 | 73 | 1017.5 |
| 20260902141159 | 29 | 182 | 1.6 | 3.2 | 0.00 | 0.00 | 0.00 | 73 | 1017.3 |
| 20260902140654 | 28 | 195 | 1.6 | 1.6 | 0.00 | 0.00 | 0.00 | 74 | 1017.5 |
| 20260902140149 | 28 | 137 | 0.0 | 0.0 | 0.00 | 0.00 | 0.00 | 73 | 1017.3 |
| 20260902135648 | 28 | 175 | 3.2 | 3.2 | 0.00 | 0.00 | 0.00 | 73 | 1017.2 |
| 20260902135143 | 28 | 173 | 0.0 | 1.6 | 0.00 | 0.00 | 0.00 | 74 | 1017.4 |
| 20260902134639 | 28 | 157 | 0.0 | 0.0 | 0.00 | 0.00 | 0.00 | 76 | 1017.4 |
| 20260902134138 | 27 | 176 | 0.0 | 0.0 | 0.00 | 0.00 | 0.00 | 77 | 1017.4 |
| 20260902133633 | 27 | 198 | 0.0 | 0.0 | 0.00 | 0.00 | 0.00 | 78 | 1017.3 |
| 20260902133128 | 27 | 55 | 1.6 | 1.6 | 0.00 | 0.00 | 0.00 | 78 | 1016.9 |
| 20260902132623 | 27 | 190 | 0.0 | 0.0 | 0.00 | 0.00 | 0.00 | 79 | 1017.4 |
| 20260902132118 | 27 | 197 | 0.0 | 0.0 | 0.00 | 0.00 | 0.00 | 79 | 1017.4 |
| 20260902131614 | 27 | 169 | 1.6 | 1.6 | 0.00 | 0.00 | 0.00 | 79 | 1017.2 |
| 20260902131109 | 27 | 199 | 4.8 | 4.8 | 0.00 | 0.00 | 0.00 | 79 | 1017.2 |
| 20260902130605 | 26 | 202 | 1.6 | 1.6 | 0.00 | 0.00 | 0.00 | 79 | 1017.3 |
| 20260902125556 | 26 | 148 | 3.2 | 3.2 | 0.00 | 0.00 | 0.00 | 79 | 1017.2 |
| 20260902125051 | 26 | 193 | 0.0 | 0.0 | 0.00 | 0.00 | 0.00 | 79 | 1017.1 |
| 20260902124548 | 26 | 196 | 0.0 | 0.0 | 0.00 | 0.00 | 0.00 | 79 | 1016.8 |
| 20260902124048 | 26 | 179 | 0.0 | 0.0 | 0.00 | 0.00 | 0.00 | 80 | 1017.0 |
| 20260902123544 | 26 | 186 | 0.0 | 1.6 | 0.00 | 0.00 | 0.00 | 80 | 1016.7 |
| 20260902123043 | 26 | 169 | 0.0 | 0.0 | 0.00 | 0.00 | 0.00 | 80 | 1016.7 |
| 20260902122538 | 26 | 178 | 0.0 | 0.0 | 0.00 | 0.00 | 0.00 | 80 | 1016.8 |
| 20260902122034 | 26 | 159 | 0.0 | 0.0 | 0.00 | 0.00 | 0.00 | 81 | 1016.9 |
| 20260902121534 | 25 | 192 | 0.0 | 0.0 | 0.00 | 0.00 | 0.00 | 82 | 1016.8 |
| 20260902121029 | 25 | 189 | 0.0 | 0.0 | 0.00 | 0.00 | 0.00 | 82 | 1016.9 |
| 20260902120525 | 25 | 199 | 0.0 | 0.0 | 0.00 | 0.00 | 0.00 | 82 | 1016.9 |
| 20260902120021 | 25 | 202 | 0.0 | 0.0 | 0.00 | 0.00 | 0.00 | 82 | 1016.9 |
| 20260902115516 | 25 | 203 | 0.0 | 0.0 | 0.00 | 0.00 | 0.00 | 82 | 1016.8 |
| 20260902115013 | 25 | 204 | 0.0 | 0.0 | 0.00 | 0.00 | 0.00 | 81 | 1016.7 |
| 20260902114508 | 25 | 184 | 0.0 | 0.0 | 0.00 | 0.00 | 0.00 | 82 | 1016.9 |
| 20260902114008 | 25 | 200 | 0.0 | 0.0 | 0.00 | 0.00 | 0.00 | 81 | 1016.9 |
| 20260902113504 | 25 | 203 | 0.0 | 0.0 | 0.00 | 0.00 | 0.00 | 81 | 1017.0 |
| 20260902113003 | 25 | 204 | 0.0 | 0.0 | 0.00 | 0.00 | 0.00 | 80 | 1016.8 |
| 20260902112459 | 25 | 204 | 0.0 | 0.0 | 0.00 | 0.00 | 0.00 | 80 | 1016.8 |
| 20260902111955 | 25 | 205 | 0.0 | 0.0 | 0.00 | 0.00 | 0.00 | 80 | 1016.9 |
| 20260902111451 | 26 | 205 | 0.0 | 0.0 | 0.00 | 0.00 | 0.00 | 79 | 1016.9 |
| 20260902110947 | 26 | 204 | 0.0 | 0.0 | 0.00 | 0.00 | 0.00 | 78 | 1016.8 |
| 20260902110443 | 26 | 201 | 0.0 | 0.0 | 0.00 | 0.00 | 0.00 | 78 | 1016.8 |
| 20260902105937 | 26 | 198 | 0.0 | 0.0 | 0.00 | 0.00 | 0.00 | 78 | 1016.8 |
| 20260902105432 | 26 | 204 | 0.0 | 0.0 | 0.00 | 0.00 | 0.00 | 79 | 1016.9 |
| 20260902104927 | 26 | 205 | 0.0 | 0.0 | 0.00 | 0.00 | 0.00 | 79 | 1016.8 |
| 20260902104423 | 26 | 202 | 0.0 | 0.0 | 0.00 | 0.00 | 0.00 | 79 | 1016.7 |
| 20260902103922 | 26 | 202 | 0.0 | 0.0 | 0.00 | 0.00 | 0.00 | 79 | 1016.7 |
| 20260902103418 | 26 | 205 | 0.0 | 0.0 | 0.00 | 0.00 | 0.00 | 79 | 1016.6 |
| 20260902102913 | 26 | 205 | 0.0 | 0.0 | 0.00 | 0.00 | 0.00 | 78 | 1016.6 |
| 20260902102410 | 26 | 199 | 0.0 | 0.0 | 0.00 | 0.00 | 0.00 | 77 | 1016.7 |
| 20260902101906 | 26 | 195 | 0.0 | 0.0 | 0.00 | 0.00 | 0.00 | 77 | 1016.8 |
| 20260902101401 | 26 | 200 | 0.0 | 0.0 | 0.00 | 0.00 | 0.00 | 77 | 1016.8 |
| 20260902100900 | 26 | 202 | 0.0 | 0.0 | 0.00 | 0.00 | 0.00 | 77 | 1016.8 |
| 20260902100359 | 26 | 201 | 0.0 | 0.0 | 0.00 | 0.00 | 0.00 | 77 | 1016.8 |
| 20260902095854 | 26 | 200 | 0.0 | 0.0 | 0.00 | 0.00 | 0.00 | 76 | 1016.9 |
| 20260902095349 | 26 | 200 | 0.0 | 0.0 | 0.00 | 0.00 | 0.00 | 75 | 1016.9 |
| 20260902094849 | 26 | 198 | 0.0 | 0.0 | 0.00 | 0.00 | 0.00 | 75 | 1016.8 |
| 20260902094345 | 26 | 197 | 0.0 | 0.0 | 0.00 | 0.00 | 0.00 | 75 | 1016.8 |
| 20260902093844 | 27 | 200 | 0.0 | 0.0 | 0.00 | 0.00 | 0.00 | 75 | 1016.6 |
| 20260902093340 | 27 | 194 | 0.0 | 0.0 | 0.00 | 0.00 | 0.00 | 74 | 1016.8 |
| 20260902092838 | 27 | 187 | 0.0 | 0.0 | 0.00 | 0.00 | 0.00 | 74 | 1016.8 |
| 20260902092334 | 27 | 202 | 0.0 | 0.0 | 0.00 | 0.00 | 0.00 | 74 | 1016.5 |
| 20260902091829 | 27 | 199 | 0.0 | 0.0 | 0.00 | 0.00 | 0.00 | 73 | 1016.7 |
| 20260902091324 | 27 | 198 | 0.0 | 0.0 | 0.00 | 0.00 | 0.00 | 73 | 1016.6 |
| 20260902090821 | 27 | 200 | 0.0 | 0.0 | 0.00 | 0.00 | 0.00 | 72 | 1016.2 |
| 20260902090320 | 27 | 199 | 0.0 | 0.0 | 0.00 | 0.00 | 0.00 | 72 | 1016.6 |
| 20260902085813 | 27 | 196 | 0.0 | 0.0 | 0.00 | 0.00 | 0.00 | 71 | 1016.5 |
| 20260902085309 | 27 | 199 | 0.0 | 0.0 | 0.00 | 0.00 | 0.00 | 71 | 1016.5 |
| 20260902084804 | 27 | 192 | 1.6 | 3.2 | 0.00 | 0.00 | 0.00 | 71 | 1016.4 |
| 20260902084301 | 27 | 198 | 0.0 | 0.0 | 0.00 | 0.00 | 0.00 | 71 | 1016.5 |
| 20260902083755 | 27 | 196 | 0.0 | 0.0 | 0.00 | 0.00 | 0.00 | 71 | 1016.3 |
| 20260902083250 | 27 | 203 | 0.0 | 1.6 | 0.00 | 0.00 | 0.00 | 70 | 1016.4 |
| 20260902082745 | 27 | 199 | 0.0 | 1.6 | 0.00 | 0.00 | 0.00 | 70 | 1016.6 |
| 20260902082242 | 27 | 192 | 0.0 | 1.6 | 0.00 | 0.00 | 0.00 | 70 | 1016.6 |
| 20260902081738 | 27 | 202 | 0.0 | 0.0 | 0.00 | 0.00 | 0.00 | 70 | 1016.3 |
| 20260902081233 | 28 | 180 | 0.0 | 1.6 | 0.00 | 0.00 | 0.00 | 70 | 1016.4 |
| 20260902080728 | 28 | 189 | 0.0 | 0.0 | 0.00 | 0.00 | 0.00 | 70 | 1016.4 |
| 20260902080225 | 28 | 190 | 0.0 | 0.0 | 0.00 | 0.00 | 0.00 | 70 | 1016.6 |
| 20260902075724 | 28 | 196 | 0.0 | 1.6 | 0.00 | 0.00 | 0.00 | 70 | 1016.4 |
| 20260902075220 | 28 | 184 | 4.8 | 8.0 | 0.00 | 0.00 | 0.00 | 70 | 1016.4 |
| 20260902074719 | 28 | 176 | 1.6 | 1.6 | 0.00 | 0.00 | 0.00 | 70 | 1016.4 |
| 20260902074216 | 28 | 184 | 1.6 | 1.6 | 0.00 | 0.00 | 0.00 | 70 | 1016.6 |
| 20260902073711 | 28 | 177 | 1.6 | 3.2 | 0.00 | 0.00 | 0.00 | 70 | 1016.4 |
| 20260902073207 | 28 | 186 | 1.6 | 1.6 | 0.00 | 0.00 | 0.00 | 69 | 1016.3 |
| 20260902072702 | 28 | 195 | 1.6 | 1.6 | 0.00 | 0.00 | 0.00 | 70 | 1016.2 |
| 20260902072158 | 28 | 178 | 1.6 | 1.6 | 0.00 | 0.00 | 0.00 | 69 | 1016.4 |
| 20260902071654 | 28 | 152 | 4.8 | 4.8 | 0.00 | 0.00 | 0.00 | 69 | 1016.5 |
| 20260902071149 | 28 | 193 | 1.6 | 3.2 | 0.00 | 0.00 | 0.00 | 69 | 1016.5 |
| 20260902070646 | 28 | 198 | 3.2 | 3.2 | 0.00 | 0.00 | 0.00 | 70 | 1016.4 |
| 20260902070145 | 28 | 175 | 1.6 | 3.2 | 0.00 | 0.00 | 0.00 | 70 | 1016.4 |
| 20260902065644 | 28 | 170 | 0.0 | 0.0 | 0.00 | 0.00 | 0.00 | 70 | 1016.5 |
| 20260902065140 | 28 | 204 | 1.6 | 1.6 | 0.00 | 0.00 | 0.00 | 70 | 1016.5 |
| 20260902064635 | 28 | 161 | 4.8 | 4.8 | 0.00 | 0.00 | 0.00 | 70 | 1016.4 |
| 20260902064130 | 28 | 159 | 6.4 | 9.7 | 0.00 | 0.00 | 0.00 | 70 | 1016.5 |
| 20260902063626 | 28 | 196 | 4.8 | 4.8 | 0.00 | 0.00 | 0.00 | 70 | 1016.4 |
| 20260902063120 | 28 | 187 | 4.8 | 9.7 | 0.00 | 0.00 | 0.00 | 70 | 1016.5 |
| 20260902062619 | 29 | 206 | 3.2 | 4.8 | 0.00 | 0.00 | 0.00 | 69 | 1016.5 |
| 20260902062115 | 29 | 186 | 6.4 | 11.3 | 0.00 | 0.00 | 0.00 | 69 | 1016.4 |
| 20260902061614 | 29 | 150 | 3.2 | 3.2 | 0.00 | 0.00 | 0.00 | 69 | 1016.5 |
| 20260902061110 | 29 | 200 | 4.8 | 4.8 | 0.00 | 0.00 | 0.00 | 68 | 1016.6 |
| 20260902060607 | 29 | 175 | 3.2 | 4.8 | 0.00 | 0.00 | 0.00 | 68 | 1016.5 |
| 20260902055558 | 29 | 185 | 1.6 | 3.2 | 0.00 | 0.00 | 0.00 | 68 | 1016.3 |
| 20260902055054 | 29 | 155 | 4.8 | 4.8 | 0.00 | 0.00 | 0.00 | 68 | 1016.4 |
| 20260902054548 | 29 | 216 | 4.8 | 4.8 | 0.00 | 0.00 | 0.00 | 68 | 1016.5 |
| 20260902054044 | 30 | 204 | 1.6 | 4.8 | 0.00 | 0.00 | 0.00 | 67 | 1016.4 |
| 20260902053539 | 30 | 218 | 4.8 | 4.8 | 0.00 | 0.00 | 0.00 | 67 | 1016.5 |
| 20260902053038 | 30 | 179 | 0.0 | 1.6 | 0.00 | 0.00 | 0.00 | 67 | 1016.4 |
| 20260902052533 | 30 | 205 | 4.8 | 4.8 | 0.00 | 0.00 | 0.00 | 66 | 1016.5 |
| 20260902052029 | 30 | 195 | 1.6 | 1.6 | 0.00 | 0.00 | 0.00 | 66 | 1016.4 |
| 20260902051529 | 30 | 204 | 3.2 | 4.8 | 0.00 | 0.00 | 0.00 | 66 | 1016.6 |
| 20260902051027 | 30 | 200 | 3.2 | 4.8 | 0.00 | 0.00 | 0.00 | 66 | 1016.3 |
| 20260902050522 | 30 | 159 | 1.6 | 3.2 | 0.00 | 0.00 | 0.00 | 65 | 1016.3 |
| 20260902050018 | 30 | 203 | 3.2 | 3.2 | 0.00 | 0.00 | 0.00 | 65 | 1016.3 |
| 20260902045513 | 30 | 179 | 4.8 | 8.0 | 0.00 | 0.00 | 0.00 | 65 | 1016.3 |
| 20260902045010 | 30 | 189 | 4.8 | 8.0 | 0.00 | 0.00 | 0.00 | 64 | 1016.5 |
| 20260902044504 | 30 | 191 | 0.0 | 1.6 | 0.00 | 0.00 | 0.00 | 64 | 1016.3 |
| 20260902044000 | 30 | 202 | 3.2 | 3.2 | 0.00 | 0.00 | 0.00 | 64 | 1016.3 |
| 20260902043455 | 30 | 101 | 4.8 | 4.8 | 0.00 | 0.00 | 0.00 | 63 | 1016.3 |
| 20260902042950 | 30 | 208 | 9.7 | 12.9 | 0.00 | 0.00 | 0.00 | 63 | 1016.2 |
| 20260902042449 | 31 | 197 | 3.2 | 3.2 | 0.00 | 0.00 | 0.00 | 62 | 1016.2 |
| 20260902041944 | 31 | 172 | 6.4 | 9.7 | 0.00 | 0.00 | 0.00 | 62 | 1016.1 |
| 20260902041439 | 31 | 144 | 4.8 | 8.0 | 0.00 | 0.00 | 0.00 | 61 | 1016.1 |
| 20260902040938 | 31 | 182 | 3.2 | 3.2 | 0.00 | 0.00 | 0.00 | 61 | 1016.3 |
| 20260902040433 | 31 | 161 | 3.2 | 4.8 | 0.00 | 0.00 | 0.00 | 60 | 1016.2 |
| 20260902035932 | 31 | 190 | 4.8 | 4.8 | 0.00 | 0.00 | 0.00 | 60 | 1016.1 |
| 20260902035427 | 31 | 105 | 1.6 | 3.2 | 0.00 | 0.00 | 0.00 | 59 | 1015.9 |
| 20260902034926 | 32 | 104 | 3.2 | 3.2 | 0.00 | 0.00 | 0.00 | 57 | 1015.9 |
| 20260902034421 | 32 | 142 | 1.6 | 3.2 | 0.00 | 0.00 | 0.00 | 56 | 1015.9 |
| 20260902033920 | 32 | 94 | 1.6 | 3.2 | 0.00 | 0.00 | 0.00 | 57 | 1015.9 |
| 20260902033414 | 31 | 197 | 0.0 | 0.0 | 0.00 | 0.00 | 0.00 | 59 | 1015.5 |
| 20260902032914 | 32 | 196 | 0.0 | 0.0 | 0.00 | 0.00 | 0.00 | 58 | 1015.6 |
| 20260902032408 | 32 | 194 | 0.0 | 0.0 | 0.00 | 0.00 | 0.00 | 58 | 1015.6 |
| 20260902031903 | 32 | 195 | 0.0 | 0.0 | 0.00 | 0.00 | 0.00 | 57 | 1015.7 |
| 20260902031359 | 32 | 199 | 0.0 | 1.6 | 0.00 | 0.00 | 0.00 | 57 | 1015.6 |
| 20260902030854 | 32 | 192 | 0.0 | 0.0 | 0.00 | 0.00 | 0.00 | 57 | 1015.3 |
| 20260902030348 | 32 | 188 | 0.0 | 0.0 | 0.00 | 0.00 | 0.00 | 56 | 1015.4 |
| 20260902025847 | 32 | 183 | 0.0 | 0.0 | 0.00 | 0.00 | 0.00 | 55 | 1015.3 |
| 20260902025344 | 32 | 196 | 0.0 | 0.0 | 0.00 | 0.00 | 0.00 | 54 | 1015.4 |
| 20260902024838 | 33 | 173 | 0.0 | 1.6 | 0.00 | 0.00 | 0.00 | 54 | 1015.5 |
| 20260902024334 | 33 | 147 | 1.6 | 3.2 | 0.00 | 0.00 | 0.00 | 54 | 1015.3 |
| 20260902023829 | 33 | 137 | 1.6 | 1.6 | 0.00 | 0.00 | 0.00 | 53 | 1015.2 |
| 20260902023324 | 33 | 157 | 1.6 | 3.2 | 0.00 | 0.00 | 0.00 | 53 | 1015.1 |
| 20260902022823 | 33 | 146 | 1.6 | 3.2 | 0.00 | 0.00 | 0.00 | 52 | 1015.1 |
| 20260902022318 | 33 | 195 | 1.6 | 3.2 | 0.00 | 0.00 | 0.00 | 52 | 1014.9 |
| 20260902021815 | 33 | 174 | 0.0 | 1.6 | 0.00 | 0.00 | 0.00 | 53 | 1014.7 |
| 20260902021309 | 33 | 198 | 0.0 | 0.0 | 0.00 | 0.00 | 0.00 | 53 | 1014.7 |
| 20260902020805 | 33 | 194 | 0.0 | 0.0 | 0.00 | 0.00 | 0.00 | 54 | 1014.7 |
| 20260902020301 | 33 | 183 | 0.0 | 0.0 | 0.00 | 0.00 | 0.00 | 54 | 1014.6 |
| 20260902015755 | 33 | 192 | 0.0 | 0.0 | 0.00 | 0.00 | 0.00 | 54 | 1014.6 |
| 20260902015252 | 33 | 194 | 0.0 | 0.0 | 0.00 | 0.00 | 0.00 | 53 | 1014.3 |
| 20260902014748 | 33 | 183 | 1.6 | 1.6 | 0.00 | 0.00 | 0.00 | 53 | 1014.4 |
| 20260902014244 | 33 | 184 | 0.0 | 1.6 | 0.00 | 0.00 | 0.00 | 53 | 1014.4 |
| 20260902013742 | 33 | 193 | 0.0 | 0.0 | 0.00 | 0.00 | 0.00 | 52 | 1014.1 |
| 20260902013238 | 33 | 193 | 0.0 | 0.0 | 0.00 | 0.00 | 0.00 | 52 | 1014.4 |
| 20260902012733 | 33 | 146 | 0.0 | 1.6 | 0.00 | 0.00 | 0.00 | 51 | 1014.5 |
| 20260902012229 | 33 | 191 | 1.6 | 1.6 | 0.00 | 0.00 | 0.00 | 50 | 1013.9 |
| 20260902011724 | 34 | 116 | 1.6 | 3.2 | 0.00 | 0.00 | 0.00 | 50 | 1014.0 |
| 20260902011224 | 34 | 176 | 1.6 | 3.2 | 0.00 | 0.00 | 0.00 | 49 | 1014.1 |
| 20260902010724 | 33 | 192 | 1.6 | 1.6 | 0.00 | 0.00 | 0.00 | 49 | 1013.7 |
| 20260902010220 | 34 | 197 | 0.0 | 0.0 | 0.00 | 0.00 | 0.00 | 49 | 1013.8 |
| 20260902005717 | 34 | 179 | 1.6 | 1.6 | 0.00 | 0.00 | 0.00 | 49 | 1013.9 |
| 20260902005214 | 34 | 194 | 0.0 | 1.6 | 0.00 | 0.00 | 0.00 | 48 | 1013.6 |
| 20260902004713 | 34 | 200 | 0.0 | 0.0 | 0.00 | 0.00 | 0.00 | 48 | 1014.1 |
| 20260902004208 | 35 | 189 | 1.6 | 1.6 | 0.00 | 0.00 | 0.00 | 47 | 1013.9 |
| 20260902003704 | 35 | 173 | 1.6 | 3.2 | 0.00 | 0.00 | 0.00 | 47 | 1014.0 |
| 20260902003159 | 35 | 185 | 1.6 | 3.2 | 0.00 | 0.00 | 0.00 | 47 | 1013.9 |
| 20260902002655 | 35 | 190 | 0.0 | 1.6 | 0.00 | 0.00 | 0.00 | 46 | 1013.9 |
| 20260902002154 | 35 | 119 | 0.0 | 0.0 | 0.00 | 0.00 | 0.00 | 46 | 1013.8 |
| 20260902001650 | 35 | 190 | 0.0 | 0.0 | 0.00 | 0.00 | 0.00 | 46 | 1014.0 |
| 20260902001149 | 35 | 168 | 0.0 | 0.0 | 0.00 | 0.00 | 0.00 | 46 | 1014.1 |
| 20260902000645 | 35 | 138 | 0.0 | 1.6 | 0.00 | 0.00 | 0.00 | 45 | 1014.0 |
| 20260902000140 | 35 | 192 | 1.6 | 1.6 | 0.00 | 0.00 | 0.00 | 45 | 1014.3 |
| 20260901235634 | 35 | 94 | 0.0 | 1.6 | 0.00 | 0.00 | 0.00 | 45 | 1014.4 |
| 20260901235130 | 36 | 126 | 0.0 | 1.6 | 0.00 | 0.00 | 0.00 | 44 | 1014.0 |
| 20260901234629 | 36 | 70 | 1.6 | 1.6 | 0.00 | 0.00 | 0.00 | 44 | 1014.3 |
| 20260901234124 | 35 | 68 | 1.6 | 1.6 | 0.00 | 0.00 | 0.00 | 44 | 1014.1 |
| 20260901233618 | 36 | 109 | 0.0 | 0.0 | 0.00 | 0.00 | 0.00 | 45 | 1014.4 |
| 20260901233109 | 36 | 134 | 1.6 | 3.2 | 0.00 | 0.00 | 0.00 | 45 | 1014.4 |